World > North America > United States > South Carolina   Town of Cheraw, South Carolina
Hourly regional weather for Cheraw, South CarolinaCheraw, South Carolina Regional Hourly Weather

Cheraw, South Carolina Regional Weather

regional weather cheraw, scHOURLY REGIONAL WEATHER FOR CHERAW, SC
Lat: 34.70N, Lon: 79.9W 
Web Search
Cheraw Weather Warning NWS WEATHER ALERT FOR THE CHERAW, SC AREA - Issued: 1039 AM EDT Fri Jul 30 2021 Cheraw Weather Warning  

Our weather pages are very print friendly and they make great conversation starters.

Feedback


°F Click to change Cheraw hourly weather to Imperial units.Click to change Cheraw hourly weather to Metric units. °C
Cheraw Weather Map
UTC Time: 7/30/2021, 17:47
Your Time:

Cheraw, SC Regional Weather

Expires:202107301800;;705273
ASUS42 KCAE 301710
RWRCAE
REGIONAL WEATHER ROUNDUP
NATIONAL WEATHER SERVICE COLUMBIA SC
100 PM EDT FRI JUL 30 2021

NOTE: "FAIR" INDICATES FEW OR NO CLOUDS BELOW 12,000 FEET WITH NO
SIGNIFICANT WEATHER AND/OR OBSTRUCTIONS TO VISIBILITY.

NOT ALL STATIONS ARE QUALITY CONTROLLED BY THE NATIONAL 
WEATHER SERVICE. USE DATA WITH CAUTION...ESPECIALLY 
DEWPOINT OBSERVATIONS.


SCZ001>059-115-116-135>137-GAZ040-063>065-077-301800-
...UPSTATE SOUTH CAROLINA...
  
CITY           SKY/WX    TMP DP  RH WIND       PRES   REMARKS
ANDERSON       MOSUNNY   87  74  64 W8        29.97R HX  95           
LIBERTY        PTSUNNY   88  72  59 SW3       29.98S HX  95           
SPARTANBURG    PTSUNNY   88  70  55 CALM      29.95S                  
CLEMSON        PTSUNNY   86  74  67 W6        29.99R                  
GREENVILLE     PTSUNNY   90  68  48 NW6       29.98R                  
GREENWOOD      MOSUNNY   89  76  65 SW7       29.95F HX 100           
GREER          PTSUNNY   89  67  47 NW3       29.97S                  
ROCK HILL      CLOUDY    88  73  61 CALM      29.95F HX  95           
LAURENS        MOSUNNY   86  75  70 CALM      29.95F HX  95           


...CENTRAL SOUTH CAROLINA...
  
CITY           SKY/WX    TMP DP  RH WIND       PRES   REMARKS
COLUMBIA APT   PTSUNNY   93  73  52 W9        29.92F HX 102           
COLUMBIA OWENS SUNNY     92  72  51 W9        29.93F HX  99           
MCENTIRE ANGB  PTSUNNY   93  75  55 SW7       29.91F HX 104           
ORANGEBURG     SUNNY     92  75  57 SW16G24   29.94F HX 103           
SUMTER SHAW    PTSUNNY   92  77  61 SW13      29.92F HX 105           
AIKEN          FAIR      92  74  55 SW15      29.97F HX 101           
BARNWELL       FAIR      93  75  55 SW10      29.96F HX 104           
MANNING        FAIR      90  75  62 SW12      29.94F HX 100           
CAMDEN         FAIR      91  73  55 SW8       29.93F HX 100           
LANCASTER      PTSUNNY   88  73  62 VRB5      29.94F HX  96           
WINNSBORO      MOSUNNY   88  73  62 W5        29.95S HX  96           


...EASTERN AND COASTAL SOUTH CAROLINA...
  
CITY           SKY/WX    TMP DP  RH WIND       PRES   REMARKS
MYRTLE BEACH   MOSUNNY   88  80  77 S16       29.94F HX 104           
N MYRTLE BCH   MOSUNNY   88  79  74 S15       29.93F HX 103           
CONWAY         FAIR      90  77  66 SW9       29.93F HX 102           
MARION         FAIR      90  79  70 SW6       29.93F HX 105           
HARTSVILLE     FAIR      88  75  66 SW8       29.94S HX  97           
FLORENCE       PTSUNNY   92  75  57 W8        29.93F HX 103           
DARLINGTON     PTSUNNY   91  78  65 SW6       29.93F HX 106           
CHARLESTON APT MOSUNNY   92  78  63 SW12      29.96F HX 107           
MOUNT PLEASANT FAIR      93  79  62 S8        29.96F HX 110           
WALTERBORO     MOSUNNY   91  77  62 SW8       29.98S HX 105           
BEAUFORT       MOSUNNY   93  78  61 SW9         N/A  HX 108           
HILTON HEAD    SUNNY     91  79  66 S10       29.99S HX 107           


...EASTERN GEORGIA...
  
CITY           SKY/WX    TMP DP  RH WIND       PRES   REMARKS
AUGUSTA BUSH F MOSUNNY   93  75  55 SW10      29.94F HX 104           
AUGUSTA DANIEL MOSUNNY   93  73  52 W8        29.96F HX 102           
THOMSON        MOSUNNY   92  74  54 SW6       29.97S HX 102           
WASHINGTON     FAIR      91  73  56 NW6       29.97S HX  99           
CLAXTON        FAIR      94  76  56 W5        29.98F HX 106           
SYLVANIA       PTSUNNY   91  77  62 W7        29.99S HX 105           
STATESBORO     PTSUNNY   91  73  56 SW7       29.98F HX 100           
SAVANNAH       PTSUNNY   92  76  59 W10       29.97F HX 104           


...SOUTHERN NORTH CAROLINA...
  
CITY           SKY/WX    TMP DP  RH WIND       PRES   REMARKS
CHARLOTTE      CLOUDY    88  73  61 VRB7      29.95F HX  95           
MONROE         CLOUDY    88  73  61 SW5       29.93F HX  95           
WADESBORO      CLOUDY    90  71  54 CALM      29.92F HX  96           
ROCKINGHAM     CLOUDY    88  74  64 W5        29.93F HX  97           
ASHEVILLE      CLOUDY    80  68  66 NW5       30.07R                  

$$
  

SKY/WX - Weather  TMP - Temperature  DP - Dew Point  RH - Relative Humidity
WIND - Wind Direction/Speed PRES - Barometric Pressure VSB - Visibility
WCI - Wind Chill Index E13G22 Wind - East Wind 13 mph/Gusts of 22 mph